• In Uzbekistan
  • List of Countries
  • For 7 days
  • Water Temperature
  • Satellite Maps
  • Weather Map
  • Weather Widgets
  • user-avatar
    Login

    Hourly Weather La Rioja

    Today, 27 June, Tuesday

    Time Temperature Precipitation Wind Pressure Humidity
    00:00 +14°C° 0 mm 3 mps 712 mmHg 80%
    01:00 +14°C° 0 mm 3 mps 712 mmHg 79%
    02:00 +13°C° 0 mm 3 mps 713 mmHg 78%
    03:00 +13°C° 0 mm 3 mps 713 mmHg 78%
    04:00 +12°C° 0 mm 3 mps 713 mmHg 78%
    05:00 +12°C° 0 mm 3 mps 714 mmHg 78%
    06:00 +12°C° 0 mm 3 mps 714 mmHg 77%
    07:00 +12°C° 0 mm 3 mps 715 mmHg 77%
    08:00 +12°C° 0 mm 3 mps 715 mmHg 77%
    09:00 +13°C° 0 mm 3 mps 716 mmHg 69%
    10:00 +16°C° 0 mm 3 mps 717 mmHg 62%
    11:00 +17°C° 0 mm 4 mps 717 mmHg 54%
    12:00 +18°C° 0 mm 4 mps 717 mmHg 50%
    13:00 +19°C° 0 mm 5 mps 717 mmHg 47%
    14:00 +20°C° 0 mm 6 mps 716 mmHg 44%
    15:00 +19°C° 0 mm 6 mps 716 mmHg 47%
    16:00 +17°C° 0 mm 5 mps 717 mmHg 50%
    17:00 +16°C° 0 mm 5 mps 717 mmHg 53%
    18:00 +15°C° 0 mm 5 mps 717 mmHg 58%
    19:00 +13°C° 0 mm 4 mps 718 mmHg 64%
    20:00 +12°C° 0 mm 3 mps 719 mmHg 69%
    21:00 +12°C° 0 mm 3 mps 719 mmHg 71%
    22:00 +11°C° 0 mm 3 mps 719 mmHg 72%
    23:00 +11°C° 0 mm 3 mps 720 mmHg 74%

    Tomorrow, 28 June, Wednesday

    Time Temperature Precipitation Wind Pressure Humidity
    00:00 +10°C° 0 mm 2 mps 719 mmHg 75%
    01:00 +10°C° 0 mm 2 mps 719 mmHg 77%
    02:00 +10°C° 0 mm 2 mps 719 mmHg 78%
    03:00 +9°C° 0 mm 2 mps 719 mmHg 79%
    04:00 +9°C° 0 mm 2 mps 718 mmHg 80%
    05:00 +9°C° 0 mm 2 mps 718 mmHg 81%
    06:00 +9°C° 0 mm 2 mps 718 mmHg 80%
    07:00 +9°C° 0 mm 2 mps 718 mmHg 79%
    08:00 +9°C° 0 mm 2 mps 718 mmHg 78%
    09:00 +11°C° 0 mm 1 mps 718 mmHg 70%
    10:00 +13°C° 0 mm 1 mps 718 mmHg 62%
    11:00 +15°C° 0 mm 1 mps 718 mmHg 53%
    12:00 +16°C° 0 mm 2 mps 717 mmHg 50%
    13:00 +17°C° 0 mm 2 mps 716 mmHg 47%
    14:00 +18°C° 0 mm 2 mps 716 mmHg 44%
    15:00 +17°C° 0 mm 2 mps 715 mmHg 46%
    16:00 +17°C° 0 mm 2 mps 715 mmHg 49%
    17:00 +16°C° 0 mm 2 mps 715 mmHg 51%
    18:00 +15°C° 0 mm 2 mps 715 mmHg 57%
    19:00 +13°C° 0 mm 1 mps 716 mmHg 63%
    20:00 +12°C° 0 mm 1 mps 716 mmHg 69%
    21:00 +12°C° 0 mm 1 mps 716 mmHg 70%
    22:00 +11°C° 0 mm 1 mps 717 mmHg 72%
    23:00 +10°C° 0 mm 2 mps 717 mmHg 74%

    Day after tomorrow, 29 June, Thursday

    Time Temperature Precipitation Wind Pressure Humidity
    00:00 +10°C° 0 mm 2 mps 717 mmHg 75%
    01:00 +9°C° 0 mm 2 mps 717 mmHg 76%
    02:00 +9°C° 0 mm 2 mps 717 mmHg 78%
    03:00 +9°C° 0 mm 2 mps 717 mmHg 77%
    04:00 +9°C° 0 mm 2 mps 717 mmHg 77%
    05:00 +8°C° 0 mm 2 mps 717 mmHg 76%
    06:00 +9°C° 0 mm 2 mps 718 mmHg 72%
    07:00 +9°C° 0 mm 2 mps 718 mmHg 67%
    08:00 +9°C° 0 mm 2 mps 718 mmHg 62%
    09:00 +14°C° 0 mm 2 mps 719 mmHg 52%
    10:00 +17°C° 0 mm 2 mps 719 mmHg 41%
    11:00 +20°C° 0 mm 2 mps 719 mmHg 31%
    12:00 +21°C° 0 mm 2 mps 718 mmHg 29%
    13:00 +23°C° 0 mm 2 mps 718 mmHg 27%
    14:00 +24°C° 0 mm 2 mps 717 mmHg 25%
    15:00 +23°C° 0 mm 2 mps 716 mmHg 28%
    16:00 +21°C° 0 mm 2 mps 716 mmHg 31%
    17:00 +20°C° 0 mm 2 mps 716 mmHg 34%
    18:00 +18°C° 0 mm 2 mps 716 mmHg 40%
    19:00 +16°C° 0 mm 2 mps 716 mmHg 46%
    20:00 +14°C° 0 mm 2 mps 717 mmHg 52%
    21:00 +14°C° 0 mm 1 mps 717 mmHg 54%
    22:00 +13°C° 0 mm 1 mps 717 mmHg 57%
    23:00 +13°C° 0 mm 1 mps 717 mmHg 59%

    30 June, Friday

    Time Temperature Precipitation Wind Pressure Humidity
    00:00 +12°C° 0 mm 1 mps 716 mmHg 60%
    01:00 +12°C° 0 mm 1 mps 716 mmHg 61%
    02:00 +12°C° 0 mm 1 mps 715 mmHg 62%
    03:00 +12°C° 0 mm 1 mps 715 mmHg 63%
    04:00 +11°C° 0 mm 1 mps 715 mmHg 64%
    05:00 +11°C° 0 mm 1 mps 715 mmHg 64%
    06:00 +11°C° 0 mm 1 mps 716 mmHg 64%
    07:00 +11°C° 0 mm 1 mps 716 mmHg 64%
    08:00 +11°C° 0 mm 1 mps 717 mmHg 63%
    09:00 +14°C° 0 mm 1 mps 718 mmHg 56%
    10:00 +17°C° 0 mm 2 mps 718 mmHg 48%
    11:00 +19°C° 0 mm 2 mps 719 mmHg 40%
    12:00 +20°C° 0 mm 2 mps 719 mmHg 38%
    13:00 +21°C° 0 mm 2 mps 718 mmHg 36%
    14:00 +23°C° 0 mm 2 mps 718 mmHg 35%
    15:00 +21°C° 0 mm 2 mps 718 mmHg 39%
    16:00 +20°C° 0 mm 2 mps 718 mmHg 43%
    17:00 +19°C° 0 mm 2 mps 718 mmHg 47%
    18:00 +18°C° 0 mm 2 mps 719 mmHg 55%
    19:00 +16°C° 0 mm 1 mps 719 mmHg 63%
    20:00 +14°C° 0 mm 1 mps 720 mmHg 71%
    21:00 +14°C° 0 mm 1 mps 720 mmHg 73%
    22:00 +13°C° 0 mm 1 mps 720 mmHg 75%
    23:00 +13°C° 0 mm 1 mps 721 mmHg 77%

    1 July, Saturday

    Time Temperature Precipitation Wind Pressure Humidity
    00:00 +13°C° 0 mm 1 mps 721 mmHg 79%
    01:00 +12°C° 0 mm 1 mps 721 mmHg 80%
    02:00 +12°C° 0 mm 1 mps 721 mmHg 82%
    03:00 +11°C° 0 mm 1 mps 721 mmHg 84%
    04:00 +11°C° 0 mm 1 mps 721 mmHg 85%
    05:00 +11°C° 0 mm 1 mps 721 mmHg 87%
    06:00 +11°C° 0 mm 1 mps 721 mmHg 86%
    07:00 +11°C° 0 mm 1 mps 721 mmHg 86%
    08:00 +12°C° 0 mm 1 mps 721 mmHg 85%
    09:00 +14°C° 0 mm 1 mps 721 mmHg 77%
    10:00 +16°C° 0 mm 2 mps 722 mmHg 70%
    11:00 +18°C° 0 mm 2 mps 722 mmHg 62%
    12:00 +19°C° 0 mm 2 mps 721 mmHg 59%
    13:00 +20°C° 0 mm 2 mps 720 mmHg 57%
    14:00 +20°C° 0 mm 3 mps 720 mmHg 54%
    15:00 +20°C° 0 mm 3 mps 720 mmHg 56%
    16:00 +20°C° 0 mm 3 mps 720 mmHg 58%
    17:00 +19°C° 0 mm 2 mps 720 mmHg 60%
    18:00 +18°C° 0 mm 3 mps 720 mmHg 64%
    19:00 +17°C° 0 mm 3 mps 720 mmHg 69%
    20:00 +16°C° 0 mm 3 mps 721 mmHg 74%
    21:00 +15°C° 0 mm 2 mps 721 mmHg 75%
    22:00 +15°C° 0 mm 2 mps 721 mmHg 76%
    23:00 +14°C° 0 mm 2 mps 721 mmHg 77%

    2 July, Sunday

    Time Temperature Precipitation Wind Pressure Humidity
    00:00 +14°C° 0 mm 2 mps 721 mmHg 78%
    01:00 +13°C° 0 mm 2 mps 721 mmHg 79%
    02:00 +13°C° 0 mm 2 mps 720 mmHg 80%
    03:00 +12°C° 0 mm 2 mps 720 mmHg 81%
    04:00 +12°C° 0 mm 2 mps 720 mmHg 83%
    05:00 +12°C° 0 mm 1 mps 720 mmHg 84%
    06:00 +12°C° 0 mm 1 mps 720 mmHg 83%
    07:00 +12°C° 0 mm 1 mps 721 mmHg 82%
    08:00 +12°C° 0 mm 1 mps 721 mmHg 80%
    09:00 +14°C° 0 mm 2 mps 721 mmHg 71%
    10:00 +16°C° 0 mm 2 mps 721 mmHg 62%
    11:00 +18°C° 0 mm 2 mps 722 mmHg 53%
    12:00 +19°C° 0 mm 2 mps 721 mmHg 50%
    13:00 +21°C° 0 mm 2 mps 720 mmHg 47%
    14:00 +22°C° 0 mm 3 mps 720 mmHg 43%
    15:00 +21°C° 0 mm 2 mps 720 mmHg 46%
    16:00 +21°C° 0 mm 2 mps 719 mmHg 49%
    17:00 +20°C° 0 mm 2 mps 719 mmHg 52%
    18:00 +19°C° 0 mm 2 mps 719 mmHg 59%
    19:00 +17°C° 0 mm 2 mps 720 mmHg 65%
    20:00 +16°C° 0 mm 2 mps 720 mmHg 71%
    21:00 +16°C° 0 mm 2 mps 720 mmHg 73%
    22:00 +15°C° 0 mm 2 mps 720 mmHg 74%
    23:00 +15°C° 0 mm 2 mps 720 mmHg 76%
    Show more